Location: ??
(35.5619°N, 139.6409°E)
Time: 07:01:17
(UTC+00:00)

Daily predictions for brighter satellites

Satellite Brightness Start Highest point End
(mag) Time Altitude Azimuth Time Altitude Azimuth Time Altitude Azimuth
Atlas Centaur 2 4.5 18:24:31 16° SSE 18:24:31 16° SSE 18:27:58 10° ESE
Lacrosse 5 4.5 18:37:12 10° SSE 18:40:22 17° ESE 18:43:32 10° E
ALOS 3.9 18:48:48 10° NNE 18:56:27 18° SSE 18:57:48 10° S
Cosmos 1777 Rocket 4.4 18:55:46 58° ESE 18:55:47 58° ESE 19:00:53 10° NNE
SL-16 R/B 2.3 19:03:35 67° S 19:03:35 67° S 19:08:27 10° SSE
OAO 2 Rocket 4.3 19:03:15 37° SSE 19:03:23 38° SSE 19:08:06 10° E
Cosmos 1386 Rocket 4.5 19:01:46 10° S 19:08:11 87° E 19:14:35 10° N
Meteor 1-31 Rocket 3.6 19:11:45 10° NNE 19:15:44 47° ESE 19:19:11 10° S
METEOR-M 4.2 19:15:48 10° NNE 19:21:09 76° ESE 19:26:29 10° S
Cosmos 1441 Rocket 3.7 19:19:52 10° S 19:23:37 58° E 19:27:20 10° NNE
Nadezhda 1 Rocket 3.9 19:18:28 10° N 19:24:51 84° W 19:31:07 10° S
Okean 3 Rocket 4.3 19:27:44 10° S 19:31:58 52° E 19:36:14 10° NNE
Gblst 52 Del rocket 4.4 19:31:39 49° W 19:32:38 54° SW 19:38:55 10° SSE
ARGOS Delta rocket 3.8 19:28:30 10° N 19:33:36 63° WNW 19:38:24 10° SSW
SL-8 R/B 3.6 19:34:28 62° WSW 19:34:52 65° SW 19:39:38 10° SE
Cosmos 2263 Rocket 2.0 19:29:28 10° SSW 19:35:06 77° WNW 19:40:49 10° NNE
CZ-4B R/B 3.9 19:33:57 10° NNE 19:38:22 52° E 19:42:39 10° S
Cosmos 1766 Rocket 4.2 19:34:04 10° S 19:38:26 58° E 19:42:50 10° NNE
SJ 16-02 2.2 19:34:23 10° S 19:38:37 50° ESE 19:42:54 10° NNE
COSMO-SKYMED 1 3.4 19:39:48 10° SSE 19:43:59 50° ENE 19:48:12 10° N
ADEOS Rocket 4.4 19:43:08 10° SSW 19:45:17 19° SW 19:45:17 19° SW
OAO 3 Rocket 3.2 19:46:48 46° WSW 19:48:03 68° SSW 19:52:45 10° ESE
Milstar 3 Cent rocket 4.1 19:48:23 20° WSW 19:54:06 58° S 20:09:52 10° E
Cosmos 1633 2.3 19:53:48 10° S 19:57:18 82° W 20:00:50 10° N
Cosmos 1603 4.0 19:51:44 10° NNW 19:57:20 69° ENE 20:02:55 10° SSE
SAR-Lupe-4 3.5 19:56:37 10° SSE 20:00:10 84° ENE 20:03:18 13° N
CZ-4B R/B 1.9 19:57:34 10° S 20:00:03 37° SW 20:00:03 37° SW
CZ-4C R/B 2.7 19:57:42 10° SSW 20:02:12 53° ESE 20:07:25 10° NE
FENGYUN 3A 4.3 20:00:20 10° N 20:05:06 33° WNW 20:09:51 10° SW
Cosmos 773 Rocket 4.2 20:02:19 21° NW 20:05:34 47° WSW 20:10:34 10° S
H-2A R/B 3.5 20:02:56 10° NNE 20:06:48 56° E 20:10:35 10° S
SKYMED 3 4.5 20:03:40 10° S 20:07:59 82° WSW 20:12:21 10° NNW
Cosmos 1943 3.4 20:02:43 10° NNW 20:08:26 75° ENE 20:14:07 10° SSE
SJ-12 4.0 20:04:50 10° N 20:08:46 49° WNW 20:12:40 10° SSW
Meteor 2-17 Rocket 4.5 20:02:54 10° S 20:08:57 83° E 20:15:00 10° N
NOSS 3-4 (A) 3.4 20:04:03 10° SW 20:09:44 53° NW 20:15:46 10° NNE
NOSS 3-4 (C) 3.4 20:04:09 10° SW 20:09:52 54° NW 20:15:54 10° NNE
Atlas Centaur 2 3.3 20:07:55 10° SW 20:13:11 33° SSE 20:17:28 10° ESE
NOSS 3-2 (C) 4.2 20:06:09 10° NNW 20:14:04 89° ENE 20:22:49 10° SSE
FALCON 9 DEB 3.4 20:11:43 10° SW 20:14:51 62° SE 20:18:01 10° NE
ASTRO E2 3.4 20:12:47 21° WSW 20:15:08 45° S 20:18:56 10° ESE
ERS-2 3.0 20:13:01 10° SSW 20:16:11 28° W 20:17:04 25° WNW
SWAS 4.4 20:13:26 16° NNW 20:16:45 64° WSW 20:20:57 10° SSE
CRYOSAT 2 4.3 20:12:09 10° S 20:16:57 67° W 20:21:48 10° N
SAR-Lupe-1 4.1 20:13:48 10° S 20:17:17 58° WSW 20:20:50 10° NNW
Cosmos 2181 Rocket 3.9 20:11:51 10° N 20:18:06 86° W 20:24:13 10° S
FALCON 9 DEB 3.0 20:15:28 10° SW 20:18:38 76° SE 20:21:50 10° NE
Cosmos 389 Rocket 4.1 20:20:41 17° WSW 20:20:41 17° WSW 20:22:22 10° SW
Lacrosse 5 1.8 20:17:49 10° SW 20:22:51 64° NW 20:27:53 10° NE
Cosmos 1709 Rocket 4.5 20:19:05 10° SW 20:24:55 38° WNW 20:30:49 10° N
Cosmos 2084 3.6 20:21:33 11° NNW 20:25:51 84° ENE 20:30:20 10° SSE
USA 234 3.3 20:22:12 10° NE 20:28:36 59° NW 20:35:00 10° WSW
Cosmos 1933 3.7 20:25:14 10° NNW 20:29:08 44° W 20:33:00 10° SSW
ATLAS 2AS CENTAUR R/B 3.1 20:21:30 10° SW 20:29:16 58° NW 20:37:05 10° NNE
Cosmos 990 Rocket 4.0 20:24:21 10° SSW 20:29:34 89° W 20:34:51 10° NNE
H-2A R/B 3.0 20:26:05 10° NNE 20:29:53 56° ESE 20:33:37 10° S
Meteor PRIRODA 4.2 20:26:28 10° N 20:29:54 36° WNW 20:33:21 10° SW
Cosmos 1184 Rocket 3.5 20:26:59 10° SW 20:29:56 31° WNW 20:32:54 10° NNW
ALOS 3.8 20:27:35 10° NNW 20:34:59 - WSW 20:29:45 15° WNW
CENTAUR R/B 3.3 20:23:30 10° NW 20:31:56 75° WSW 20:40:47 10° SSE
SKYMED 2 4.0 20:27:58 10° S 20:32:03 41° W 20:36:11 10° NNW
PSLV R/B 3.6 20:31:52 10° N 20:35:45 76° WNW 20:39:31 10° SSW
FALCON 9 DEB 2.8 20:33:31 10° SW 20:36:41 70° NW 20:39:54 10° NE
Delta 2 Rocket 4.0 20:33:54 14° W 20:37:49 49° SSW 20:41:52 10° SE
RESURS DK-1 2.5 20:33:42 10° SSW 20:37:50 78° ESE 20:42:00 10° NNE
USA 276 4.1 20:37:45 12° W 20:39:12 16° SW 20:41:12 10° S
Cosmos 1515 Rocket 3.7 20:35:18 10° N 20:39:47 82° E 20:44:14 10° S
Cosmos 1606 4.3 20:38:54 14° WNW 20:40:06 15° W 20:42:21 10° SW
GPS 2-04 Rocket1 2.7 20:39:24 10° WSW 20:43:15 75° SSE 20:46:55 10° E
SJ-7 4.4 20:39:30 10° N 20:43:29 60° WNW 20:47:30 10° SSW
NOAA 6 4.1 20:38:21 10° NNE 20:43:29 88° E 20:48:36 10° SSW
Cosmos 1782 2.8 20:42:54 10° NNW 20:46:53 61° W 20:50:51 10° S
Cosmos 1680 Rocket 3.8 20:41:52 10° NNW 20:47:12 72° ENE 20:52:29 10° SSE
OAO 2 Rocket 3.5 20:42:51 10° WSW 20:47:55 78° S 20:53:07 10° E
EO 1 Delta rocket 4.1 20:42:49 10° S 20:48:37 73° W 20:53:29 10° NNW
Okean O Rocket 2.6 20:45:24 10° NNE 20:49:45 53° E 20:54:06 10° S
PAYLOAD B 4.3 20:44:42 10° NNE 20:50:15 86° ESE 20:55:44 10° SSW
Cosmos 2074 Rocket 4.0 20:46:33 10° SSW 20:52:40 61° W 20:58:48 10° N
Cosmos 1844 3.9 20:49:35 10° SSW 20:55:07 80° ESE 21:00:41 10° NNE
Cosmos 1844 Rocket 2.7 20:49:52 10° SSW 20:55:30 80° WNW 21:01:12 10° NNE
CZ-4B DEB 4.2 20:50:26 10° N 20:55:51 68° WNW 21:01:16 10° SSW
MOS 1 Rocket 3.3 20:52:08 10° S 20:56:39 65° W 21:01:29 10° NNW
Lacrosse 4 Rocket 1.5 20:53:57 10° NNW 20:58:18 81° WSW 21:02:41 10° SSE
Cosmos 1500 Rocket 3.5 20:54:26 10° SSW 20:58:41 62° W 21:02:58 10° N
